NOAA-19
1 33591U 09005A 16021.49057067 .00000119 00000-0 89604-4 0 9995
2 33591 99.0206 337.2131 0013034 276.0632 83.9053 14.12030575358299
HUBBLE
1 20580U 90037B 16021.19961807 .00001539 00000-0 86024-4 0 9997
2 20580 28.4693 155.8130 0003069 60.3268 312.3803 15.08081092212745
ISS
1 25544U 98067A 16021.72262839 .00013777 00000-0 20392-3 0 9993
2 25544 51.6415 73.4408 0006509 42.0459 318.1555 15.54607323982041
CO-58
1 28895U 05043F 16020.90104709 .00000582 00000-0 12192-3 0 9996
2 28895 097.8220 202.3766 0016323 331.9859 028.0464 14.63064996545197
FALCON
1 30776U 07006E 16021.44489183 .00009716 00000-0 35231-3 0 9997
2 30776 35.4309 69.7870 0000399 239.8440 120.2245 15.27637261489666
MAST
1 31126U 07012K 16021.84229675 .00000506 00000-0 11848-3 0 9992
2 31126 97.9924 345.3354 0090173 334.8426 24.8393 14.56275594465307
CAPE1
1 31130U 07012P 16020.87932893 .00000724 00000-0 16562-3 0 9992
2 31130 98.0136 342.0011 0096972 358.5996 1.4916 14.55787500464553
COMPASS
1 32787U 08021E 16021.16040786 .00001814 00000-0 18587-3 0 9996
2 32787 97.6235 66.8999 0013995 53.1419 307.1081 14.91592337418993
AAUSAT2
1 32788U 08021F 16021.59826432 .00002557 00000-0 25253-3 0 9997
2 32788 97.6245 69.2226 0013232 48.2716 311.9633 14.92744132419174
DO-64
1 32789U 08021G 16021.10632230 .00006786 00000-0 52022-3 0 9998
2 32789 97.6291 82.8804 0013267 46.8356 313.3975 15.02078465419762
CO-66
1 32791U 08021J 16021.74603679 .00001359 00000-0 14827-3 0 9998
2 32791 97.6234 64.6285 0014920 59.0648 301.2035 14.89447186418845
RS-30
1 32953U 08025A 16021.67368909 .00000010 00000-0 -13620-7 0 9996
2 32953 82.5009 198.3694 0018665 325.0269 34.9581 12.43066371347750
METEOR-M
1 35865U 09049A 16021.77548348 -.00000012 00000-0 13543-4 0 9999
2 35865 98.4747 58.9740 0002366 174.1188 316.0209 14.22055580329274
RS-38
1 35869U 09049E 16021.67231841 .00000001 00000-0 19268-4 0 9996
2 35869 98.4662 58.3961 0004057 187.0477 173.0631 14.22326132329315
JUGNU
1 37839U 11058B 16021.16456631 .00000367 00000-0 53891-4 0 9993
2 37839 19.9625 321.0231 0018795 288.5828 199.7959 14.12517202221073
SRMSAT
1 37841U 11058D 16020.28533362 .00000335 00000-0 39252-4 0 9995
2 37841 19.9734 357.4852 0011829 195.6389 298.3518 14.10520288220634
RAX-2
1 37853U 11061D 16021.86135952 .00003805 00000-0 22879-3 0 9991
2 37853 101.7141 345.7627 0187842 156.8146 204.1677 14.98494408229829
AUBIESAT
1 37854U 11061E 16021.84657486 .00004858 00000-0 28158-3 0 9996
2 37854 101.7028 350.2365 0177352 148.1077 213.1017 15.00782603229982
HRBE
1 37855U 11061F 16020.89147306 .00003334 00000-0 19119-3 0 9991
2 37855 101.7175 346.9915 0192309 154.0634 207.0368 14.99682611229282
HORYU-2
1 38340U 12025D 16020.87302950 .00000899 00000-0 14222-3 0 9991
2 38340 98.3403 1.8144 0012838 120.7043 239.5431 14.74792582197614
RS-40
1 38735U 12041C 16021.71704570 .00000040 00000-0 21992-3 0 9995
2 38735 82.4779 283.7158 0017982 63.9607 296.3320 12.42570609158057
PROITERES
1 38756U 12047B 16021.83444840 .00000390 00000-0 64406-4 0 9994
2 38756 98.2274 129.9645 0011395 324.4921 35.5527 14.76073506181256
BEESAT-3
1 39134U 13015E 16020.63014894 .00005675 00000-0 31479-3 0 9994
2 39134 64.8726 80.5874 0015371 234.1153 125.8546 15.14644392151606
BEESAT-2
1 39136U 13015G 16021.41173981 .00005204 00000-0 30663-3 0 9998
2 39136 64.8735 82.4727 0014828 231.5137 128.4657 15.12584544151641
ZACUBE-1
1 39417U 13066B 16021.10999911 .00001037 00000-0 13897-3 0 9991
2 39417 97.7020 80.1617 0060813 145.1702 215.3514 14.80179782116862
TRITON-1
1 39427U 13066M 16021.15845294 .00000807 00000-0 13850-3 0 9994
2 39427 97.6869 63.7753 0114962 190.1270 169.7619 14.67015599115818
DELFIN3XT
1 39428U 13066N 16021.05969457 .00001425 00000-0 24069-3 0 9993
2 39428 97.6892 61.6584 0122878 196.6652 163.0499 14.66002776115651
GOMX-1
1 39430U 13066Q 16021.82498528 .00000572 00000-0 11447-3 0 9995
2 39430 97.6843 53.8903 0151960 220.1943 138.7928 14.58419765115240
LO-74
1 39440U 13066AA 16021.74637114 .00000860 00000-0 12853-3 0 9995
2 39440 97.6954 74.2399 0082040 160.1953 200.2474 14.74959782116547
PUCPSAT-1
1 39442U 13066AC 16020.82279218 .00001428 00000-0 15472-3 0 9993
2 39442 97.7151 90.6628 0033864 122.7748 237.6740 14.89335705116259
SPROUT
1 39770U 14029E 16021.07223772 .00001823 00000-0 22115-3 0 9990
2 39770 97.8710 120.0675 0009162 201.9183 158.1645 14.84779321 89950
POPSAT-HIP1
1 40028U 14033U 16021.83778238 .00000992 00000-0 11511-3 0 9993
2 40028 97.9418 287.3970 0013611 180.0318 180.0927 14.87610583 86287
EO-80
1 40032U 14033Y 16021.67819382 .00001200 00000-0 13911-3 0 9995
2 40032 97.9381 286.6914 0012025 175.6187 184.5137 14.87296372 86247
VELOX-1
1 40057U 14034E 16021.81166890 .00000988 00000-0 14975-3 0 9991
2 40057 98.2021 108.4045 0010038 258.5927 101.4161 14.76418973 84132
DAURIA DX 1
1 40071U 14037C 16021.69404607 .00000441 00000-0 64798-4 0 9990
2 40071 98.3390 106.9045 0007370 258.1909 101.8479 14.80678600 83126
UKUBE-1
1 40074U 14037F 16021.78096998 .00001003 00000-0 13121-3 0 9991
2 40074 98.3418 108.5332 0003505 263.3913 96.6897 14.82783297 83223
HODOYOSHI-1
1 40299U 14070B 16021.84438363 .00002341 00000-0 10951-3 0 9994
2 40299 97.4410 105.6487 0015524 87.6513 50.8488 15.20650834 67032
CHUBUSAT-1
1 40300U 14070C 16021.84139281 .00002621 00000-0 12735-3 0 9997
2 40300 97.4379 104.2890 0023357 92.6904 40.9209 15.19089590 66959
QSAT-EOS
1 40301U 14070D 16021.82358654 .00005191 00000-0 24328-3 0 9999
2 40301 97.4324 103.4901 0031695 93.1522 46.5134 15.19682640 66910
TSUBAME
1 40302U 14070E 16021.82184767 .00003268 00000-0 17700-3 0 9991
2 40302 97.4291 100.7858 0043192 101.2341 37.8528 15.14507186 66747
FIREBIRD FU3
1 40377U 15003B 16021.79532736 .00008586 00000-0 40371-3 0 9997
2 40377 99.0911 100.9022 0148434 255.8094 102.6602 15.10607813 53516
FIREBIRD FU4
1 40378U 15003C 16021.79253954 .00008448 00000-0 39689-3 0 9997
2 40378 99.0911 100.9079 0148721 255.7694 102.6973 15.10608694 53512
GRIFEX
1 40379U 15003D 16021.77337991 .00007434 00000-0 36068-3 0 9992
2 40379 99.0918 100.4452 0151591 258.3009 100.1172 15.09284384 53482
LAMBDA-SAT
1 40458U 98067GB 15136.30676273 .20783109 12527-4 14817-2 0 9995
2 40458 051.6075 233.7697 0010355 318.5347 043.1720 16.39926603 21161
NO-84
1 40654U 15025X 16021.52967394 .00017542 00000-0 39378-3 0 00114
2 40654 054.9989 348.5496 0227451 066.6960 295.7885 15.20764282001538
NO-83
1 40655U 15025X 16021.43756829 .00024801 00000-0 53269-3 0 00115
2 40655 054.9887 346.6799 0215321 067.5279 294.8433 15.23674300001529
DEORBITSAIL
1 40719U 15032E 16020.76421571 .00001524 00000-0 23275-3 0 9998
2 40719 98.0343 273.5753 0017016 358.1471 1.9672 14.75176095 28602
NUDT-PHONESAT
1 40900U 15049B 16021.87129955 .00006021 00000-0 32422-3 0 9993
2 40900 97.4471 32.3655 0014581 202.2712 277.2614 15.15102275 18755
XW-2D
1 40907U 15049J 16021.80942403 .00002402 00000-0 13982-3 0 9993
2 40907 97.4515 32.0598 0014990 178.5393 305.8205 15.12893047 18719
XW-2F
1 40910U 15049M 16021.80922610 .00003394 00000-0 19502-3 0 9990
2 40910 97.4550 32.1128 0016165 178.0385 306.4441 15.13061528 18603
XW-2B
1 40911U 15049N 16021.87331112 .00002291 00000-0 13351-3 0 9990
2 40911 97.4561 32.2046 0014883 178.5325 300.9359 15.12896282 18621
DCBB
1 40912U 15049P 16021.86200556 .00003630 00000-0 19793-3 0 9991
2 40912 97.4550 32.5065 0016469 175.5948 307.0382 15.14896607 18643
